APRIZESAT 7 (39416 NORAD) Tracking and Keplerian Element Data

This shows tracking and keplerian element data for the satellite.

Feedback or suggestion? Click here.




ElementValue
Catalog39416
NameAPRIZESAT 7
Epoch Orbit25184
Epoch Day198.68804308
Epoch Year2018
RAAN235.291
Inclination97.5812
Eccentricity0.0042113
Argument of Perigee34.2271
Mean Anonmoly326.1645
Mean Motion14.83815604
Decay Rate6.5E-07
L11 39416U 13066A 18198.68804308 .00000065 00000-0 13881-4 0 9999
L22 39416 97.5812 235.2910 0042113 34.2271 326.1645 14.83815604251846

Live tracking and technical data element details for APRIZESAT 7 (NORAD 39416). APRIZESAT 7 can be tracked NOW for your location showing map with azimuth and elevation plus other details from your city location.

Track the satellite on the map from your city or location and see movement details for azimuth, elevation, latitude, longitude, range, height, and movement on the map or in text.







IsCatalogInMostPopularTable: catalog: 39416, numindb: 61
Update: records affected: 1



GetName: 39416 APRIZESAT 7

Hit Count: updated at: Fri, 20 Jul 2018 20:27:30 GMT